Lovelock, NV

5:04 PM PST on February 24, 2018 (GMT -0800)
Derby

Weather History for KLOL - February, 2013

Change the Weather History Date:

Monday, February 18, 2013

  Actual Average Record
Temperature  
Mean Temperature 28 °F -  
Max Temperature 48 °F 50 °F 66 °F (1981)
Min Temperature 8 °F 23 °F 8 °F (2013)
Degree Days  
Heating Degree Days 37    
Moisture  
Dew Point 11 °F    
Average Humidity 46    
Maximum Humidity 76    
Minimum Humidity 26    
Precipitation  
Precipitation 0.00 in - - ()
Sea Level Pressure  
Sea Level Pressure 29.97 in    
Wind  
Wind Speed 3 mph (NW)    
Max Wind Speed 8 mph    
Max Gust Speed -    
Visibility 10 miles    
Events      
Averages and records for this station are not official NWS values.
T = Trace of Precipitation, MM = Missing Value Source: NWS Daily Summary

Daily Weather History Graph

Daily Weather History Graph

Search for Another Location

Airport or City:

Trip Planner

Search our weather history database for the weather conditions in past years. The results will help you decide how hot, cold, wet, or windy it might be!

Date:

Astronomy

Feb. 18, 2013 Rise Set
Actual Time 6:42 AM PST 5:34 PM PST
Civil Twilight 6:15 AM PST 6:01 PM PST
Nautical Twilight 5:43 AM PST 6:33 PM PST
Astronomical Twilight 5:12 AM PST 7:04 PM PST
Moon 11:23 AM PST (2/18) 1:26 AM PST (2/18)
Length of Visible Light 11h 46m
Length of Day
10h 51m
First Quarter, 59% of the Moon is Illuminated
Feb 18
First Quarter
Feb 25
Full
Mar 4
Last Quarter
Mar 11
New
Mar 19
First Quarter

Hourly Weather History & Observations

Time (PST) Temp. Windchill Dew Point Humidity Pressure Visibility Wind Dir Wind Speed Gust Speed Precip Events Conditions
12:53 AM 17.1 °F 11.7 °F 3.9 °F 56% 30.13 in 10.0 mi SSE 3.5 mph - N/A   Clear
1:53 AM 15.1 °F 9.4 °F 5.0 °F 64% 30.13 in 10.0 mi North 3.5 mph - N/A   Clear
2:53 AM 15.1 °F 7.7 °F 6.1 °F 68% 30.11 in 10.0 mi East 4.6 mph - N/A   Clear
3:53 AM 12.9 °F - 5.0 °F 71% 30.10 in 10.0 mi Calm Calm - N/A   Clear
4:53 AM 8.1 °F - 1.9 °F 76% 30.12 in 10.0 mi Calm Calm - N/A   Clear
6:53 AM 10.9 °F - 1.9 °F 67% 30.12 in 10.0 mi Calm Calm - N/A   Clear
7:53 AM 18.0 °F - 8.1 °F 65% 30.13 in 10.0 mi Calm Calm - N/A   Clear
8:53 AM 24.1 °F - 10.9 °F 57% 30.12 in 10.0 mi Calm Calm - N/A   Clear
9:53 AM 35.1 °F 32.2 °F 14.0 °F 42% 30.08 in 10.0 mi NNE 3.5 mph - N/A   Clear
10:53 AM 39.0 °F 36.8 °F 12.9 °F 34% 30.05 in 10.0 mi Variable 3.5 mph - N/A   Clear
11:53 AM 41.0 °F 38.0 °F 12.9 °F 32% 30.01 in 10.0 mi NNW 4.6 mph - N/A   Clear
12:53 PM 44.1 °F - 12.0 °F 27% 29.97 in 10.0 mi Calm Calm - N/A   Clear
1:53 PM 46.0 °F - 14.0 °F 28% 29.94 in 10.0 mi Calm Calm - N/A   Clear
2:53 PM 48.0 °F - 15.1 °F 27% 29.90 in 10.0 mi NW 5.8 mph - N/A   Clear
3:53 PM 48.9 °F - 15.1 °F 26% 29.88 in 10.0 mi Calm Calm - N/A   Clear
4:53 PM 45.0 °F 43.5 °F 15.1 °F 30% 29.88 in 10.0 mi NNW 3.5 mph - N/A   Clear
5:53 PM 45.0 °F - 15.1 °F 30% 29.85 in 10.0 mi Calm Calm - N/A   Clear
6:53 PM 37.9 °F 33.5 °F 15.1 °F 39% 29.86 in 10.0 mi WNW 5.8 mph - N/A   Clear
7:53 PM 37.0 °F - 12.9 °F 37% 29.83 in 10.0 mi Calm Calm - N/A   Clear
8:53 PM 33.1 °F - 14.0 °F 46% 29.81 in 10.0 mi Calm Calm - N/A   Partly Cloudy
9:53 PM 28.9 °F 23.9 °F 10.9 °F 47% 29.80 in 10.0 mi West 4.6 mph - N/A   Clear
10:53 PM 32.0 °F 26.4 °F 12.9 °F 45% 29.77 in 10.0 mi South 5.8 mph - N/A   Clear
11:53 PM 33.1 °F 26.1 °F 12.9 °F 43% 29.75 in 10.0 mi South 8.1 mph - N/A   Partly Cloudy